User: anonymous   Login
Location: Unspecified
(0.0000°N, 0.0000°E)
Time: 20:40:45
(UTC+00:00)
Language:

MERIDIAN 7 - Orbit

View from above orbital plane
View from above orbital plane
View from above satellite
View from above satellite

Ground track
Ground track

The orbit data is extracted from the following two-line orbital elements,

1 40296U 14069A   18141.22102546 +.00000136 +00000-0 +00000-0 0  9998
2 40296 062.8401 205.3169 6828318 274.9233 016.8553 02.00609873026074
Epoch (UTC): 21 May 2018 05:18:16
Eccentricity: 0.6828318
inclination: 62.8401°
perigee height: 2044 km
apogee height: 38311 km
right ascension of ascending node: 205.3169°
argument of perigee: 274.9233°
revolutions per day: 2.00609873
mean anomaly at epoch: 16.8553°
orbit number at epoch: 2607

The dashed part of the orbit path shows where the satellite is in the earth's shadow,  

DLR